Regional Weather Roundup
Issued by NWS

Home | Current Version | Previous Version | Text Only | Print | Product List | Glossary On
Versions: 1 2 3 4 5 6 7 8 9 10 11 12 13 14 15 16 17 18 19 20 21 22 23 24 25 26 27 28 29 30 31 32 33 34 35 36 37 38 39 40 41 42 43 44 45 46 47 48 49 50
000
ASUS43 KTOP 250408
RWRKS

WEATHER ROUNDUP FOR KANSAS
NATIONAL WEATHER SERVICE GOODLAND KS
1000 PM CST FRI NOV 24 2017

NOTE:  "FAIR" INDICATES FEW OR NO CLOUDS BELOW 12,000 FEET WITH NO
SIGNIFICANT WEATHER AND/OR OBSTRUCTIONS TO VISIBILITY.

KSZ001>006-013>018-027>032-041>047-250500-
NORTHWEST KANSAS

CITY           SKY/WX    TMP DP  RH WIND       PRES   REMARKS
GOODLAND       PTCLDY    44  34  67 NW5       30.02R
HILL CITY      CLOUDY    53  37  54 NE8       30.00R
RUSSELL        MOCLDY    54  39  57 NE6       29.95R
$$

KSZ061>065-074>080-084>089-250500-
SOUTHWEST KANSAS

CITY           SKY/WX    TMP DP  RH WIND       PRES   REMARKS
DODGE CITY     CLOUDY    59  38  45 NE13      29.99R
ELKHART        CLOUDY    53  38  56 NE9       30.00R
GARDEN CITY    CLOUDY    57  39  51 NE16      29.98R
GREAT BEND     LGT RAIN  58  42  55 N12       29.99R
LIBERAL        PTCLDY    55  37  50 N12       29.99R
PRATT          CLOUDY    61  37  41 NE9       29.93S
$$

KSZ066>073-081>083-090>101-250500-
SOUTHEAST KANSAS

CITY           SKY/WX    TMP DP  RH WIND       PRES   REMARKS
CHANUTE        PTCLDY    60  41  49 N3        29.87R
COFFEYVILLE    MOCLDY    62  41  46 N8        29.85R
HUTCHINSON     CLOUDY    62  40  44 NE9       29.92R
MEDICINE LODGE   N/A     61  39  44 N15       29.91R
NEWTON         CLOUDY    61  40  45 N16G22    29.92R
PARSONS        CLOUDY    57  41  55 CALM      29.87R
WICHITA INTL   CLOUDY    62  41  46 N12       29.91R
WICHITA JABRA  CLOUDY    59  41  51 N10       29.90R
WICHITA MCCONL CLOUDY    61  39  44 NE9       29.90R
WINFIELD       PTCLDY    64  41  42 NE13      29.88R
$$

KSZ007>012-019>026-033>040-048>060-102>105-250500-
NORTHEAST KANSAS

CITY           SKY/WX    TMP DP  RH WIND       PRES   REMARKS
CONCORDIA      MOCLDY    52  35  52 N9        29.96R
EMPORIA        CLOUDY    61  39  44 N10       29.90R
LAWRENCE       MOCLDY    60  39  45 NW14      29.87R
MANHATTAN      CLOUDY    58  35  42 N7        29.93R
MARYSVILLE     CLOUDY    50  34  53 N10       29.95R
OLATHE IND     MOCLDY    59  40  49 N18       29.86R
OLATHE EXE     PTCLDY    60  41  49 N16       29.85R
SALINA         MOCLDY    59  38  45 N12       29.95R
TOPEKA BILLARD CLOUDY    59  39  47 NW14      29.89R
TOPEKA FORBES  MOCLDY    61  38  42 N16G26    29.89R
$$



USA.gov is the U.S. government's official web portal to all federal, state and local government web resources and services.